BAW907 EDDF-EGLL

Flight info

Callsign BAW907
Flight time 1h 5m
Altitude 36000
Route OBOKA5G/25C OBOKA Z29 TORNU DCT ABNED L980 LOGAN
Aircraft B77W/H-SDE1E2E3FGHIJ2J3J4J5M1RWXY/LB1D1

Departure

Time 2026-05-05 17:12
Airport Frankfurt Main Airport (EDDF)

Arrival

Time 2026-05-05 18:17
Airport London Heathrow Airport (EGLL)
Time Latitude Longitude Altitude Speed Heading
2026-05-05 16:05 50.04983 8.58439 378 ft 0 kts 339°
2026-05-05 16:52 50.04981 8.58440 378 ft 2 kts 339°
2026-05-05 16:52 50.04956 8.58454 378 ft 4 kts 340°
2026-05-05 16:52 50.04931 8.58469 378 ft 4 kts 333°
2026-05-05 16:52 50.04910 8.58488 378 ft 4 kts 310°
2026-05-05 16:53 50.04901 8.58504 378 ft 4 kts 264°
2026-05-05 16:53 50.04906 8.58533 378 ft 4 kts 254°
2026-05-05 16:53 50.04913 8.58572 378 ft 4 kts 248°
2026-05-05 16:53 50.04920 8.58592 378 ft 4 kts 208°
2026-05-05 16:54 50.04935 8.58603 378 ft 4 kts 167°
2026-05-05 16:54 50.04938 8.58611 378 ft 4 kts 114°
2026-05-05 16:54 50.04940 8.58598 378 ft 4 kts 67°
2026-05-05 16:54 50.04927 8.58565 378 ft 4 kts 52°
2026-05-05 16:55 50.04916 8.58539 378 ft 0 kts 69°
2026-05-05 16:58 50.04919 8.58552 378 ft 7 kts 70°
2026-05-05 16:59 50.04922 8.58626 378 ft 7 kts 104°
2026-05-05 16:59 50.04893 8.58681 378 ft 7 kts 151°
2026-05-05 16:59 50.04849 8.58707 378 ft 5 kts 160°
2026-05-05 16:59 50.04836 8.58715 378 ft 0 kts 160°
2026-05-05 17:01 50.04829 8.58718 378 ft 4 kts 160°
2026-05-05 17:01 50.04801 8.58734 378 ft 4 kts 160°
2026-05-05 17:01 50.04766 8.58754 378 ft 7 kts 162°
2026-05-05 17:02 50.04722 8.58772 378 ft 6 kts 176°
2026-05-05 17:02 50.04701 8.58770 378 ft 0 kts 185°
2026-05-05 17:09 50.04660 8.58765 378 ft 13 kts 185°
2026-05-05 17:10 50.04581 8.58715 378 ft 12 kts 217°
2026-05-05 17:10 50.04516 8.58637 378 ft 11 kts 218°
2026-05-05 17:10 50.04484 8.58577 378 ft 7 kts 244°
2026-05-05 17:10 50.04482 8.58567 378 ft 0 kts 249°
2026-05-05 17:11 50.04477 8.58547 378 ft 11 kts 249°
2026-05-05 17:11 50.04388 8.58169 378 ft 73 kts 250°
2026-05-05 17:11 50.04124 8.57055 378 ft 145 kts 250°
2026-05-05 17:11 50.03710 8.55310 511 ft 187 kts 250°
2026-05-05 17:12 50.03246 8.53389 1198 ft 193 kts 249°
2026-05-05 17:12 50.02814 8.51394 1919 ft 196 kts 257°
2026-05-05 17:12 50.02696 8.49258 2476 ft 205 kts 268°
2026-05-05 17:12 50.02772 8.46942 2832 ft 225 kts 274°
2026-05-05 17:13 50.02826 8.44430 3177 ft 245 kts 268°
2026-05-05 17:13 50.02699 8.41709 3696 ft 256 kts 263°
2026-05-05 17:13 50.02438 8.38960 4007 ft 259 kts 259°
2026-05-05 17:13 50.02097 8.36201 4045 ft 260 kts 258°
2026-05-05 17:14 50.01741 8.33437 4025 ft 261 kts 258°
2026-05-05 17:14 50.01479 8.30656 4014 ft 259 kts 267°
2026-05-05 17:14 50.01696 8.27880 4169 ft 261 kts 281°
2026-05-05 17:14 50.02159 8.25123 4898 ft 263 kts 285°
2026-05-05 17:15 50.02787 8.22456 5735 ft 267 kts 290°
2026-05-05 17:15 50.03557 8.19794 6495 ft 272 kts 292°
2026-05-05 17:15 50.04369 8.17109 7251 ft 275 kts 292°
2026-05-05 17:15 50.05173 8.14432 7994 ft 279 kts 294°
2026-05-05 17:16 50.06170 8.11807 8699 ft 285 kts 300°
2026-05-05 17:16 50.07337 8.09275 9388 ft 290 kts 304°
2026-05-05 17:16 50.08591 8.06789 10093 ft 295 kts 306°
2026-05-05 17:16 50.09914 8.04259 10508 ft 310 kts 307°
2026-05-05 17:17 50.11311 8.01580 10941 ft 327 kts 307°
2026-05-05 17:17 50.12770 7.98757 11422 ft 343 kts 307°
2026-05-05 17:17 50.14300 7.95758 11796 ft 363 kts 307°
2026-05-05 17:17 50.15902 7.92622 12326 ft 376 kts 307°
2026-05-05 17:18 50.17532 7.89409 13213 ft 381 kts 307°
2026-05-05 17:18 50.19171 7.86231 14120 ft 383 kts 307°
2026-05-05 17:18 50.20843 7.82936 14781 ft 392 kts 307°
2026-05-05 17:18 50.22568 7.79578 15397 ft 400 kts 309°
2026-05-05 17:19 50.24569 7.76486 15992 ft 410 kts 319°
2026-05-05 17:19 50.26851 7.73789 16684 ft 414 kts 321°
2026-05-05 17:19 50.29150 7.71023 17261 ft 420 kts 325°
2026-05-05 17:19 50.31760 7.68904 17847 ft 427 kts 339°
2026-05-05 17:20 50.34592 7.67493 18490 ft 429 kts 341°
2026-05-05 17:20 50.37363 7.65867 19117 ft 434 kts 337°
2026-05-05 17:20 50.40140 7.63953 19795 ft 438 kts 335°
2026-05-05 17:20 50.42918 7.61934 20405 ft 443 kts 335°
2026-05-05 17:21 50.45733 7.59934 21050 ft 446 kts 335°
2026-05-05 17:21 50.48579 7.57960 21663 ft 450 kts 336°
2026-05-05 17:21 50.51462 7.55968 22213 ft 455 kts 335°
2026-05-05 17:22 50.57172 7.51548 23366 ft 460 kts 329°
2026-05-05 17:22 50.59886 7.48965 23871 ft 464 kts 326°
2026-05-05 17:22 50.62593 7.46164 24415 ft 467 kts 325°
2026-05-05 17:22 50.65300 7.43299 24915 ft 471 kts 325°
2026-05-05 17:23 50.68046 7.40450 25448 ft 474 kts 325°
2026-05-05 17:23 50.70764 7.37478 25894 ft 475 kts 320°
2026-05-05 17:23 50.73180 7.33945 26352 ft 476 kts 311°
2026-05-05 17:23 50.75273 7.29898 26828 ft 476 kts 304°
2026-05-05 17:24 50.77162 7.25590 27279 ft 478 kts 300°
2026-05-05 17:24 50.78837 7.21050 27727 ft 479 kts 295°
2026-05-05 17:24 50.80304 7.16409 28169 ft 480 kts 293°
2026-05-05 17:24 50.81741 7.11632 28622 ft 482 kts 293°
2026-05-05 17:25 50.83224 7.06890 29233 ft 479 kts 294°
2026-05-05 17:25 50.84223 7.03787 29650 ft 477 kts 294°
2026-05-05 17:25 50.86232 6.97555 30443 ft 474 kts 294°
2026-05-05 17:25 50.87724 6.92907 30934 ft 473 kts 294°
2026-05-05 17:26 50.89217 6.88262 31413 ft 472 kts 293°
2026-05-05 17:26 50.90702 6.83624 31790 ft 473 kts 293°
2026-05-05 17:26 50.92185 6.78977 31836 ft 472 kts 293°
2026-05-05 17:27 50.95115 6.69767 31823 ft 471 kts 293°
2026-05-05 17:27 50.98053 6.60506 31829 ft 470 kts 293°
2026-05-05 17:28 51.01042 6.51245 31835 ft 471 kts 294°
2026-05-05 17:28 51.04044 6.42002 31839 ft 471 kts 293°
2026-05-05 17:29 51.06935 6.32770 31843 ft 470 kts 292°
2026-05-05 17:29 51.09837 6.23462 31844 ft 469 kts 292°
2026-05-05 17:30 51.12732 6.14165 31845 ft 468 kts 292°
2026-05-05 17:30 51.15028 6.04510 31847 ft 465 kts 282°
2026-05-05 17:31 51.16524 5.94551 31850 ft 462 kts 279°
2026-05-05 17:31 51.18098 5.84698 31854 ft 463 kts 283°
2026-05-05 17:32 51.20283 5.75007 31856 ft 466 kts 288°
2026-05-05 17:32 51.22844 5.65503 31863 ft 467 kts 290°
2026-05-05 17:33 51.25411 5.55976 31866 ft 467 kts 289°
2026-05-05 17:33 51.27915 5.46408 31869 ft 467 kts 289°
2026-05-05 17:34 51.30376 5.36885 31873 ft 467 kts 289°
2026-05-05 17:34 51.32877 5.27323 31873 ft 467 kts 289°
2026-05-05 17:35 51.35410 5.17767 31874 ft 467 kts 289°
2026-05-05 17:35 51.37902 5.08171 31874 ft 467 kts 289°
2026-05-05 17:36 51.40373 4.98553 31875 ft 467 kts 289°
2026-05-05 17:36 51.42814 4.88994 31876 ft 467 kts 289°
2026-05-05 17:37 51.45261 4.79367 31876 ft 467 kts 289°
2026-05-05 17:37 51.47701 4.69721 31878 ft 466 kts 288°
2026-05-05 17:38 51.50129 4.60081 31878 ft 466 kts 288°
2026-05-05 17:38 51.52548 4.50438 31878 ft 465 kts 288°
2026-05-05 17:39 51.54952 4.40810 31879 ft 464 kts 288°
2026-05-05 17:39 51.57345 4.31183 31879 ft 464 kts 288°
2026-05-05 17:40 51.59713 4.21618 31882 ft 463 kts 288°
2026-05-05 17:40 51.62085 4.11993 31885 ft 462 kts 288°
2026-05-05 17:41 51.64445 4.02375 31890 ft 462 kts 288°
2026-05-05 17:41 51.66798 3.92744 31878 ft 462 kts 288°
2026-05-05 17:42 51.69126 3.83172 31883 ft 462 kts 288°
2026-05-05 17:42 51.71464 3.73519 31890 ft 462 kts 288°
2026-05-05 17:43 51.73802 3.63868 31898 ft 462 kts 288°
2026-05-05 17:43 51.76173 3.54212 31908 ft 463 kts 288°
2026-05-05 17:44 51.78463 3.44571 31912 ft 463 kts 287°
2026-05-05 17:44 51.80755 3.34838 31917 ft 464 kts 288°
2026-05-05 17:45 51.83045 3.25095 31925 ft 464 kts 287°
2026-05-05 17:45 51.84517 3.15033 31928 ft 460 kts 271°
2026-05-05 17:46 51.84342 3.04766 31931 ft 455 kts 261°
2026-05-05 17:46 51.83536 2.94710 31930 ft 454 kts 260°
2026-05-05 17:47 51.82811 2.84574 31929 ft 454 kts 261°
2026-05-05 17:47 51.82124 2.74420 31929 ft 454 kts 261°
2026-05-05 17:48 51.81439 2.64277 31928 ft 454 kts 261°
2026-05-05 17:48 51.80785 2.54195 31927 ft 453 kts 261°
2026-05-05 17:48 51.80434 2.49200 31926 ft 440 kts 260°
2026-05-05 17:49 51.80087 2.44367 31919 ft 427 kts 260°
2026-05-05 17:49 51.79748 2.39659 31708 ft 419 kts 260°
2026-05-05 17:49 51.79411 2.35003 31333 ft 415 kts 260°
2026-05-05 17:49 51.79077 2.30388 30962 ft 412 kts 260°
2026-05-05 17:50 51.78746 2.25806 30590 ft 409 kts 260°
2026-05-05 17:50 51.78418 2.21262 30224 ft 406 kts 260°
2026-05-05 17:50 51.78131 2.16741 29852 ft 404 kts 261°
2026-05-05 17:50 51.77884 2.12301 29470 ft 401 kts 262°
2026-05-05 17:51 51.77669 2.07821 29076 ft 399 kts 262°
2026-05-05 17:51 51.77436 2.03376 28686 ft 396 kts 262°
2026-05-05 17:51 51.77179 1.98965 28295 ft 393 kts 262°
2026-05-05 17:51 51.76912 1.94593 27908 ft 390 kts 262°
2026-05-05 17:52 51.76641 1.90250 27526 ft 388 kts 262°
2026-05-05 17:52 51.76369 1.85931 27143 ft 385 kts 262°
2026-05-05 17:52 51.76098 1.81647 26761 ft 383 kts 262°
2026-05-05 17:52 51.75828 1.77389 26380 ft 380 kts 262°
2026-05-05 17:53 51.75559 1.73160 26001 ft 378 kts 262°
2026-05-05 17:53 51.75292 1.68955 25624 ft 375 kts 262°
2026-05-05 17:53 51.75031 1.64834 25253 ft 373 kts 263°
2026-05-05 17:53 51.74767 1.60689 24859 ft 371 kts 263°
2026-05-05 17:54 51.74496 1.56495 24298 ft 379 kts 263°
2026-05-05 17:54 51.74217 1.52254 23810 ft 382 kts 263°
2026-05-05 17:54 51.73936 1.48006 23444 ft 379 kts 263°
2026-05-05 17:54 51.73681 1.43800 23100 ft 375 kts 264°
2026-05-05 17:55 51.73443 1.39624 22747 ft 372 kts 264°
2026-05-05 17:55 51.73186 1.35483 22357 ft 370 kts 263°
2026-05-05 17:55 51.72914 1.31355 21859 ft 371 kts 263°
2026-05-05 17:55 51.72632 1.27211 21366 ft 372 kts 263°
2026-05-05 17:56 51.72350 1.23129 20941 ft 370 kts 263°
2026-05-05 17:56 51.72065 1.19013 20532 ft 369 kts 263°
2026-05-05 17:56 51.71779 1.14919 20122 ft 367 kts 263°
2026-05-05 17:56 51.71494 1.10843 19732 ft 364 kts 263°
2026-05-05 17:57 51.71211 1.06800 19342 ft 362 kts 263°
2026-05-05 17:57 51.70929 1.02770 18823 ft 363 kts 263°
2026-05-05 17:57 51.70644 0.98689 18143 ft 369 kts 263°
2026-05-05 17:57 51.70355 0.94558 17556 ft 372 kts 263°
2026-05-05 17:58 51.70077 0.90402 17026 ft 373 kts 264°
2026-05-05 17:58 51.69795 0.86259 16525 ft 372 kts 263°
2026-05-05 17:58 51.69507 0.82174 16069 ft 371 kts 263°
2026-05-05 17:58 51.69213 0.78062 15606 ft 369 kts 263°
2026-05-05 17:59 51.68919 0.73956 15106 ft 368 kts 263°
2026-05-05 17:59 51.68628 0.69890 14616 ft 368 kts 263°
2026-05-05 17:59 51.68338 0.65806 14137 ft 366 kts 264°
2026-05-05 17:59 51.68053 0.61739 13694 ft 364 kts 263°
2026-05-05 18:00 51.67858 0.59061 13403 ft 362 kts 263°
2026-05-05 18:00 51.67465 0.53687 12813 ft 359 kts 263°
2026-05-05 18:00 51.67191 0.49950 12404 ft 357 kts 263°
2026-05-05 18:00 51.66888 0.45736 11945 ft 355 kts 264°
2026-05-05 18:01 51.66624 0.41929 11564 ft 331 kts 264°
2026-05-05 18:01 51.66365 0.38359 11099 ft 312 kts 263°
2026-05-05 18:01 51.66112 0.34975 10666 ft 300 kts 263°
2026-05-05 18:01 51.65866 0.31739 10395 ft 290 kts 264°
2026-05-05 18:02 51.65625 0.28564 10081 ft 283 kts 264°
2026-05-05 18:02 51.65385 0.25426 9809 ft 281 kts 264°
2026-05-05 18:02 51.65148 0.22318 9546 ft 278 kts 264°
2026-05-05 18:02 51.64913 0.19239 9268 ft 276 kts 264°
2026-05-05 18:03 51.64683 0.16226 9167 ft 267 kts 264°
2026-05-05 18:03 51.64465 0.13306 9026 ft 259 kts 264°
2026-05-05 18:03 51.64229 0.10459 8964 ft 256 kts 263°
2026-05-05 18:03 51.63987 0.07640 8943 ft 253 kts 263°
2026-05-05 18:04 51.63748 0.04843 8958 ft 251 kts 263°
2026-05-05 18:04 51.63512 0.02097 8943 ft 252 kts 263°
2026-05-05 18:04 51.63275 -0.00694 8934 ft 252 kts 263°
2026-05-05 18:04 51.63018 -0.03471 8817 ft 255 kts 263°
2026-05-05 18:05 51.62742 -0.06314 8579 ft 254 kts 263°
2026-05-05 18:05 51.62517 -0.09117 8266 ft 252 kts 267°
2026-05-05 18:05 51.62418 -0.11933 7923 ft 252 kts 270°
2026-05-05 18:05 51.62395 -0.14731 7622 ft 249 kts 272°
2026-05-05 18:06 51.62382 -0.17517 7289 ft 249 kts 272°
2026-05-05 18:06 51.62371 -0.18429 7190 ft 249 kts 271°
2026-05-05 18:06 51.62264 -0.23057 6971 ft 246 kts 270°
2026-05-05 18:06 51.62204 -0.25764 6939 ft 246 kts 270°
2026-05-05 18:07 51.62116 -0.28533 6945 ft 248 kts 269°
2026-05-05 18:07 51.62001 -0.31310 6944 ft 249 kts 268°
2026-05-05 18:07 51.61858 -0.34084 6939 ft 249 kts 268°
2026-05-05 18:07 51.61697 -0.36854 6932 ft 248 kts 267°
2026-05-05 18:08 51.61529 -0.39612 6936 ft 248 kts 267°
2026-05-05 18:08 51.61356 -0.42400 6977 ft 247 kts 267°
2026-05-05 18:08 51.61188 -0.45130 6967 ft 249 kts 267°
2026-05-05 18:08 51.61016 -0.47907 6941 ft 250 kts 267°
2026-05-05 18:09 51.60844 -0.50685 6934 ft 249 kts 267°
2026-05-05 18:09 51.60673 -0.53451 6938 ft 248 kts 267°
2026-05-05 18:09 51.60507 -0.56130 6925 ft 248 kts 267°
2026-05-05 18:09 51.60334 -0.58933 6935 ft 248 kts 267°
2026-05-05 18:10 51.60163 -0.61701 6947 ft 249 kts 267°
2026-05-05 18:10 51.59992 -0.64475 6940 ft 249 kts 267°
2026-05-05 18:10 51.59822 -0.67261 6829 ft 251 kts 267°
2026-05-05 18:10 51.59645 -0.70093 6456 ft 256 kts 267°
2026-05-05 18:11 51.59471 -0.72919 6179 ft 252 kts 267°
2026-05-05 18:11 51.59297 -0.75708 5890 ft 249 kts 266°
2026-05-05 18:11 51.58873 -0.78361 5531 ft 251 kts 246°
2026-05-05 18:11 51.57715 -0.80416 5309 ft 247 kts 216°
2026-05-05 18:12 51.56135 -0.81220 5154 ft 237 kts 185°
2026-05-05 18:12 51.54515 -0.80894 4871 ft 234 kts 170°
2026-05-05 18:12 51.52928 -0.80285 4470 ft 237 kts 165°
2026-05-05 18:12 51.51325 -0.79485 4006 ft 243 kts 159°
2026-05-05 18:13 51.49797 -0.78328 3648 ft 243 kts 148°
2026-05-05 18:13 51.48586 -0.76533 3402 ft 233 kts 124°
2026-05-05 18:13 51.47954 -0.74214 3169 ft 224 kts 103°
2026-05-05 18:13 51.47711 -0.71791 2942 ft 218 kts 94°
2026-05-05 18:14 51.47631 -0.69350 2628 ft 220 kts 88°
2026-05-05 18:14 51.47658 -0.66944 2334 ft 215 kts 85°
2026-05-05 18:14 51.47689 -0.64592 2046 ft 207 kts 86°
2026-05-05 18:14 51.47702 -0.62329 1774 ft 198 kts 86°
2026-05-05 18:15 51.47711 -0.60200 1525 ft 185 kts 86°
2026-05-05 18:15 51.47718 -0.58209 1280 ft 171 kts 87°
2026-05-05 18:15 51.47724 -0.56402 1064 ft 158 kts 87°
2026-05-05 18:15 51.47730 -0.54660 853 ft 154 kts 86°
2026-05-05 18:16 51.47736 -0.52981 657 ft 151 kts 87°
2026-05-05 18:16 51.47739 -0.51855 534 ft 152 kts 88°
2026-05-05 18:16 51.47745 -0.50137 340 ft 154 kts 89°
2026-05-05 18:16 51.47753 -0.47871 112 ft 147 kts 89°
2026-05-05 18:17 51.47759 -0.46411 97 ft 111 kts 88°
2026-05-05 18:17 51.47764 -0.45621 97 ft 31 kts 88°
2026-05-05 18:17 51.47694 -0.45462 97 ft 14 kts 180°
2026-05-05 18:17 51.47605 -0.45497 97 ft 14 kts 247°
2026-05-05 18:18 51.47599 -0.45597 97 ft 13 kts 266°
2026-05-05 18:18 51.47594 -0.45741 97 ft 13 kts 269°
2026-05-05 18:18 51.47594 -0.45881 97 ft 12 kts 269°
2026-05-05 18:18 51.47593 -0.46058 97 ft 12 kts 269°
2026-05-05 18:19 51.47592 -0.46169 97 ft 21 kts 270°
2026-05-05 18:19 51.47593 -0.46544 97 ft 24 kts 270°
2026-05-05 18:19 51.47594 -0.46719 97 ft 23 kts 270°
2026-05-05 18:19 51.47585 -0.46966 97 ft 22 kts 266°
2026-05-05 18:20 51.47582 -0.47205 97 ft 21 kts 269°
2026-05-05 18:20 51.47581 -0.47429 97 ft 20 kts 270°
2026-05-05 18:20 51.47582 -0.47646 97 ft 19 kts 270°
2026-05-05 18:20 51.47565 -0.47855 97 ft 17 kts 217°
2026-05-05 18:21 51.47454 -0.47884 97 ft 17 kts 173°
2026-05-05 18:21 51.47341 -0.47874 97 ft 16 kts 180°
2026-05-05 18:21 51.47229 -0.47874 97 ft 20 kts 180°
2026-05-05 18:21 51.47087 -0.47872 97 ft 14 kts 179°
2026-05-05 18:22 51.46993 -0.47870 97 ft 13 kts 179°
2026-05-05 18:22 51.46905 -0.47870 97 ft 13 kts 180°
2026-05-05 18:22 51.46849 -0.47835 97 ft 1 kts 106°
2026-05-05 18:22 51.46848 -0.47829 97 ft 1 kts 102°
2026-05-05 18:23 51.46848 -0.47822 97 ft 1 kts 89°
2026-05-05 18:23 51.46848 -0.47816 97 ft 1 kts 89°
2026-05-05 18:23 51.46850 -0.47758 97 ft 0 kts 89°
2026-05-05 18:23 51.46850 -0.47744 97 ft 3 kts 89°
2026-05-05 18:24 51.46850 -0.47728 97 ft 0 kts 89°